www.pogodaiklimat.ru

Погода и климат >> Архив погоды >> Гана >> Такоради


ПОГОДА Такоради

  • Прогноз погоды Такоради
  • Монитор погоды Такоради

АРХИВ ПОГОДЫ Такоради

Время (UTC), дата Ветер
(напр.,м/с)
 
Видим.   Явления Облачность Т
(С)
Тd
(С)
f
(%)
Тe
(С)
Тes
(С)
Комфортность P
(гПа)
Po
(гПа)
Тmin
(С)
Tmax
(С)
R
(мм)
R24
(мм)
S
(см)
03 12.02 штиль 0 10 км ясно +26.8 +25.9 95 +40 +40 очень
душно
1009.3 1008.3
06 12.02 З 1 5000 м дымка 3/3 300 м
[Sc]
+26.6 +26.1 97 +40 +40 очень
душно
1009.7 1008.7 +25.7
09 12.02 СЗ 3 10 км 4/4 360 м
[Cu Sc]
+28.6 +26.6 89 +44 +49 опасность
перегрева
1012.3 1011.3
12 12.02 ЮЗ 3 15 км 5/5 360 м
[Cu Sc]
+33.0 +24.8 62 +46 +54 опасность
перегрева
1011.4 1010.4
15 12.02 Ю 8 15 км 4/3 420 м
[Cu med, cong Ci fib]
+32.5 +25.1 65 +46 +47 опасность
перегрева
1007.9 1006.9
18 12.02 ЮЗ 3 12 км 5/1 360 м
[Cu Sc Ac trans Ci sp]
+30.2 +26.4 80 +46 +46 опасность
перегрева
1008.8 1007.8 +33.1
03 13.02 штиль 0 н/о дымка 5/5 330 м
[Sc]
+26.0 +25.3 96 +38 +38 очень
душно
1010.5 1009.5
09 13.02 штиль 0 8000 м дымка 3/3 360 м
[Sc]
+28.5 +27.3 93 +45 +54 опасность
перегрева
1013.3 1012.3
12 13.02 ЮЗ 3 15 км 3/3 420 м
[Cu med, cong]
+31.4 +27.3 79 +50 +62 опасность
перегрева
1011.4 1010.4
15 13.02 ЮЗ 5 16 км 1/1 420 м
[Cu hum]
+31.2 +26.2 75 +47 +53 опасность
перегрева
1009.4 1008.4
18 13.02 штиль 0 16 км 1/1 400 м
[]
+29.5 +26.1 82 +45 +45 опасность
перегрева
1011.0 1010.0 +31.8
00 14.02 штиль 0 10 км ясно +28.0 +26.6 92 +43 +43 опасность
перегрева
1012.5 1011.5
03 14.02 штиль 0 10 км 3/3 300 м
[Sc]
+27.0 +26.1 95 +41 +41 опасность
перегрева
1011.5 1010.5
09 14.02 штиль 0 8000 м дымка 3/3 360 м
[Cu med, cong]
+29.4 +27.2 88 +47 +56 опасность
перегрева
1014.0 1013.0
12 14.02 ЮЗ 1 12 км 3/3 420 м
[Cu med, cong]
+32.5 +26.8 72 +50 +67 опасность
перегрева
1012.8 1011.8
15 14.02 ЮЗ 4 16 км ясно +32.2 +27.4 76 +51 +58 опасность
перегрева
1010.0 1009.0
18 14.02 ЮЗ 3 15 км 4/3 400 м
[Cu med, cong Ac lent]
+30.0 +27.2 85 +48 +48 опасность
перегрева
1010.8 1009.8 +32.5
21 14.02 штиль 0 12 км 1/1 330 м
[Sc]
+29.0 +27.0 89 +46 +46 опасность
перегрева
1009.6 1008.6
00 15.02 штиль 0 10 км ясно +27.9 +26.7 93 +43 +43 опасность
перегрева
1009.7 1008.7
12 15.02 ЮЗ 4 12 км 3/3 420 м
[Cu med, cong]
+35.5 +27.0 62 +54 +64 опасность
перегрева
1013.3 1012.3
15 15.02 ЮЗ 5 15 км 1/1 420 м
[Cu med, cong]
+32.0 +27.5 77 +51 +56 опасность
перегрева
1010.2 1009.2
21 15.02 ЮЗ 3 15 км 4/1 330 м
[Sc Ac trans]
+29.2 +27.0 88 +46 +46 опасность
перегрева
1012.7 1011.7
03 16.02 штиль 0 12 км 3/3 330 м
[Sc]
+27.7 +26.5 93 +42 +42 опасность
перегрева
1011.0 1010.0
06 16.02 штиль 0 5000 м дымка 4/1 330 м
[Sc Ci sp]
+27.4 +26.3 94 +42 +42 опасность
перегрева
1011.6 1010.6 +26.3
18 16.02 ЮЗ 4 15 км 1/1 360 м
[Sc Ci sp]
+30.0 +27.0 84 +47 +47 опасность
перегрева
1013.2 1012.2 +32.6
21 16.02 ЮЗ 1 12 км 5/5 330 м
[Sc]
+29.4 +27.2 88 +47 +47 опасность
перегрева
1012.4 1011.4
00 17.02 штиль 0 10 км ясно +28.8 +27.2 91 +46 +46 опасность
перегрева
1012.9 1011.9
06 17.02 штиль 0 5000 м дымка 3/3 300 м
[Sc]
+26.6 +24.4 88 +37 +37 очень
душно
1011.7 1010.7 +25.9
09 17.02 Ю 2 8000 м дымка 4/4 330 м
[Cu Sc]
+30.3 +27.3 84 +48 +54 опасность
перегрева
1013.1 1012.1
15 17.02 Ю 5 18 км 1/1 420 м
[Cu hum]
+32.9 +26.9 71 +51 +56 опасность
перегрева
1008.7 1007.7
18 17.02 Ю 3 14 км 3/3 360 м
[Cu Sc]
+30.5 +26.4 79 +47 +47 опасность
перегрева
1009.7 1008.7 +32.9
00 18.02 С 1 12 км 1/1 330 м
[Sc]
+29.0 +26.4 86 +44 +44 опасность
перегрева
1012.6 1011.6
09 18.02 ЮЗ 4 8000 м дымка 5/4 400 м
[Cu Sc Ci sp]
+30.6 +27.2 82 +48 +53 опасность
перегрева
1012.8 1011.8
12 18.02 СЗ 4 15 км ясно +32.6 +27.1 73 +51 +66 опасность
перегрева
1012.0 1011.0
18 18.02 ЮЗ 5 16 км 4/1 400 м
[Cu med, cong Ci sp]
+30.4 +25.9 77 +45 +45 опасность
перегрева
1008.4 1007.4 +32.6
00 19.02 СЗ 2 10 км 8/4 300 м
[St Cs]
+28.1 +25.1 84 +41 +41 опасность
перегрева
1010.8 1009.8

 

Местоположение метеостанции Такоради (Гана): широта 4.88 долгота -1.77 высота над уровнем моря 9 м.

В архиве по умолчанию представлена погода Такоради за последнюю неделю. Архивные данные за месяц целиком и за предыдущие месяцы, начиная с января 2011 года, Вы можете получить, выбрав интересующий диапазон дат из раскрывающегося списка и нажав кнопку "Ввод!".


*Определитесь, кто Вы:
робот инопланетянин человек

Внимание! Время в таблицах - всемирное. Для получения местного времени необходимо прибавить поправку, которая равна 1 ч.

Смотрите также архив погоды в соседних городах и на ближайших метеорологических станциях:

Погода в Аксиме (Гана) (51 км)
Погода в Солтпонде (Гана) (85 км)
Погода в Аким Ода (Гана) (146 км)
Погода в Сефви Беквай (Гана) (159 км)
Погода в Адиаке (Кот-д'Ивуар) (176 км)
Погода в Аккра (Гана) (194 км)
Погода в Кумаси (Гана) (206 км)
Погода в Тема (Гана) (213 км)
Погода в Кофоридуа (Гана) (215 км)
Погода в Абетифи (Гана) (229 км)

Пояснения к столбцам:

Ветер - указаны скорость ветра в м/с - средняя за 10 мин, порывы в срок и между сроками (в фигурных скобках) и направление, откуда дует ветер: С - северный, СВ - северо-восточный, В - восточный, ЮВ - юго-восточный, Ю - южный, ЮЗ - юго-западный, З - западный, СЗ - северо-западный.
Видимость - горизонтальная дальность видимости в метрах или километрах. При видимости от 1 до 10 км при отсутствии осадков обычно наблюдается дымка, при ухудшении видимости до 1 км и менее - туман. В сухую погоду видимость может ухудшаться дымом, пылью или мглою.
Явления - указаны атмосферные явления, наблюдавшиеся в срок или в последний час перед сроком; фигурными скобками обозначены явления, наблюдавшиеся между сроками (за 1-3 часа до срока); квадратными скобками обозначены град или гололедные отложения с указанием их диаметра в мм.
Облачность - указаны через наклонную черту общая и нижняя облачность в баллах и высота нижней границы облаков в метрах; квадратными скобками обозначены формы облаков: Ci - перистые, Cs - перисто-слоистые, Cc - перисто-кучевые, Ac - высококучевые, As - высокослоистые, Sc - слоисто-кучевые, Ns - слоисто-дождевые, Cu - кучевые, Cb - кучево-дождевые. Подробнее классификацию облаков см. в Атласе облаков (PDF).
T - Температура воздуха - температура, измеренная на высоте 2 м над землей.
Td - Температура точки росы - температура, при понижении до которой содержащийся в воздухе водяной пар достигнет насыщения.
f - Относительная влажность воздуха - влажноcть воздуха, измеренная на высоте 2 м над землей.
Te - Эффективная температура - температура, которую ощущает одетый по сезону человек в тени. Характеристика душности погоды. При расчете учитывается влияние влажности воздуха и скорости ветра на теплоощущения человека.
Tes - Эффективная температура на солнце - температура, которую ощущает человек, с поправкой на солнечный нагрев. Характеристика знойности погоды. Зависит от высоты солнца над горизонтом, облачности и скорости ветра. Ночью, в пасмурную погоду, а также при ветре 12 м/с и более поправка равна нулю.
P - Атмосферное давление - приведенное к уровню моря атмосферное давление.
Po - Атмосферное давление - измеренное на уровне метеостанции атмосферное давление.
Tmin - Минимальная температура - минимум температуры воздуха на высоте 2 м над землей.
Tmax - Максимальная температура - максимум температуры воздуха на высоте 2 м над землей.
R - Количество осадков - Количество выпавших осадков за период времени, мм. При наведении курсора мыши на число - период времени, за который выпало указанное количество осадков.
R24 - Количество осадков - Количество выпавших осадков за 24 часа, мм.
S - Снежный покров - Высота снежного покрова, см. При наведении курсора мыши на число - состояние снежного покрова и степень покрытия местности в баллах.